Temp
96 90 86 92 93 90 88 85 82 86 89 86 86 87 87 88 89 89 91 90 92 92 97 98 97 98 97 97 94 93 92 91 91 91 90 91 91 94 96 97 92 91 91 91
88 85 95 97 95 90 89 86 85 87 87 86 87 86 91 89 88 90 91 91 92 93 96 97 97 98 97 95 94 93 92 90 90 94 92 93 94 96 97 98 93 93 92 90
87 91 96 91 90 88 89 87 85 83 87 89 87 86 86 90 90 91 93 95 95 94 95 98 97 97 98 95 94 93 91 91 90 92 92 91 92 91 92 93 93 93 92 92
89 93 88 89 88 91 85 92 87 84 83 80 88 79 85 88 86 88 92 94 95 95 97 100 101 100 100 98 98 95 92 91 91 90 91 88 90 90 94 94 97 95 92 91
85 85 86 86 89 93 87 91 88 86 86 84 84 81 85 88 85 88 91 94 97 98 98 98 101 102 102 101 99 97 94 91 91 90 90 90 88 93 95 94 91 90 91 91
90 91 92 91 94 92 94 88 88 89 87 76 85 82 85 88 89 91 95 94 97 99 100 101 102 102 101 101 98 97 93 89 89 89 88 88 89 89 91 91 92 94 95 93
85 85 90 91 87 91 88 86 75 73 74 74 86 81 87 93 94 93 94 96 98 100 101 100 100 100 99 98 97 96 92 87 88 88 89 88 88 88 87 88 92 92 95 95
78 74 86 91 89 86 86 88 78 65 71 77 84 76 88 95 96 95 95 100 99 100 102 101 101 101 100 98 96 94 91 88 88 89 89 88 88 92 92 91 94 95 96 97
79 79 91 91 94 93 86 81 93 84 84 78 84 85 94 95 94 94 95 97 98 99 100 101 103 103 102 98 96 95 92 89 89 91 89 88 88 88 92 91 92 95 93 95
86 77 88 90 91 90 89 94 80 83 68 66 78 78 82 88 93 93 94 96 98 100 100 103 102 103 103 102 100 97 94 90 90 92 91 91 90 88 89 91 89 91 93 92
90 85 82 87 84 85 85 84 86 89 84 73 71 78 96 92 95 93 93 93 95 99 101 103 103 101 102 102 101 97 94 89 80 78 82 84 90 91 90 90 90 90 91 90
90 88 80 82 92 93 93 89 90 79 76 82 80 79 98 95 93 93 93 93 94 96 100 101 102 100 100 98 98 94 90 87 78 82 81 82 86 88 92 91 91 92 90 90
91 83 76 79 85 88 86 90 92 92 91 79 75 80 94 94 92 93 92 93 92 93 95 99 99 96 96 95 91 89 88 89 87 89 87 89 87 90 90 91 90 91 90 89
87 88 82 77 80 88 82 86 89 90 82 82 83 84 91 91 90 91 91 93 95 94 95 96 96 96 94 91 88 87 88 91 89 90 89 87 86 89 89 89 89 90 89 88
92 82 85 86 86 86 87 87 87 85 88 82 86 86 92 93 92 93 93 93 93 94 96 96 96 93 91 89 88 87 88 88 88 87 87 86 86 87 87 87 88 88 87 88
94 82 86 82 86 86 83 87 88 88 89 88 89 88 94 91 93 90 91 92 92 93 94 93 91 90 90 89 88 87 87 86 86 86 86 88 87 87 87 86 86 86 86 87
88 87 81 76 84 83 78 86 86 88 90 89 84 90 89 86 87 90 91 93 92 91 91 90 91 93 92 91 89 88 88 88 86 86 87 87 87 87 87 88 87 86 86 88
86 86 86 80 80 67 86 90 89 87 89 92 91 87 88 88 93 95 96 95 93 92 91 91 95 96 96 98 93 90 90 89 88 88 89 89 89 89 88 88 87 86 84 84
93 88 80 76 77 81 84 86 86 83 86 90 90 90 90 91 93 91 97 97 95 94 93 95 97 99 95 93 92 91 91 90 90 89 89 89 90 90 89 88 88 88 88 86
91 92 85 80 73 68 85 89 92 90 80 88 90 89 89 90 85 88 95 97 95 96 97 97 99 99 98 96 96 92 91 91 89 90 90 90 89 89 88 88 87 87 88 88
80 82 79 79 77 83 88 91 92 75 76 92 89 89 89 88 93 95 96 95 97 96 95 98 98 98 96 96 96 93 93 92 93 93 91 89 89 87 87 86 86 86 86 86
79 79 79 81 76 72 91 89 83 85 88 89 89 91 91 92 93 94 94 94 94 93 95 97 96 96 97 95 94 92 91 93 92 91 90 88 88 90 90 86 86 86 85 84
78 88 83 84 84 82 93 90 91 92 91 89 89 93 93 93 92 93 93 93 94 94 95 97 95 94 95 93 93 91 91 90 89 88 87 87 87 87 86 84 84 87 88 88
79 82 86 81 82 85 89 89 91 92 93 93 93 93 95 93 92 93 93 93 94 95 95 97 94 93 88 89 89 89 87 87 86 86 87 87 86 84 86 89 92 91 91 89
86 82 82 79 81 84 87 91 92 93 94 94 95 95 95 95 94 93 92 92 93 93 94 94 91 89 88 88 87 87 86 87 88 87 88 87 90 88 87 88 90 89 88 83
85 85 84 85 86 90 85 91 93 92 91 93 92 93 95 95 92 91 89 89 89 88 89 88 88 88 86 86 85 85 86 86 85 85 89 88 88 89 89 89 88 67 61 59
MSLP
1003.98 1003.41 1002.57 1002.19 1002.34 1002.85 1003.20 1003.26 1003.55 1004.29 1004.92 1004.86 1004.72 1005.03 1006.15 1007.44 1007.92 1008.13 1008.53 1009.21 1009.58 1009.94 1010.31 1010.84 1011.60 1012.15 1012.65 1013.30 1014.07 1014.84 1015.43 1015.91 1016.43 1016.61 1016.66 1016.59 1016.43 1016.47 1016.50 1016.60 1017.27 1017.37 1017.51 1017.59
1003.94 1002.79 1002.28 1002.29 1002.51 1002.93 1002.99 1002.84 1002.90 1004.06 1004.62 1004.62 1004.09 1004.25 1004.77 1006.14 1006.91 1007.41 1007.84 1008.28 1008.75 1009.15 1009.51 1010.16 1010.82 1011.49 1012.19 1012.85 1013.55 1014.33 1014.92 1015.67 1016.16 1016.15 1016.42 1016.39 1016.31 1016.28 1016.20 1016.48 1016.97 1017.07 1017.20 1017.44
1002.77 1002.36 1002.49 1002.75 1002.74 1002.76 1002.49 1002.45 1002.75 1003.57 1003.91 1003.85 1003.59 1002.93 1003.80 1004.93 1006.03 1006.71 1007.22 1007.60 1007.95 1008.33 1008.64 1009.10 1009.93 1010.58 1011.33 1012.08 1012.85 1013.60 1014.35 1015.01 1015.71 1015.89 1016.34 1016.67 1016.74 1016.80 1016.71 1016.66 1016.67 1016.64 1017.01 1017.17
1003.11 1002.97 1003.30 1002.95 1002.48 1002.61 1001.95 1002.33 1003.23 1003.57 1003.48 1002.52 1003.26 1001.55 1002.65 1003.87 1004.88 1005.57 1006.07 1006.60 1007.06 1007.60 1008.09 1008.22 1008.64 1009.55 1010.28 1011.08 1012.05 1013.04 1013.95 1014.60 1015.22 1015.72 1015.83 1016.29 1016.18 1016.08 1015.97 1016.15 1016.02 1016.30 1016.77 1016.98
1003.00 1003.43 1003.35 1002.51 1002.15 1002.38 1002.32 1002.89 1003.03 1003.42 1002.96 1002.53 1002.18 1002.05 1001.75 1002.99 1003.50 1004.08 1004.82 1005.21 1005.70 1006.39 1007.06 1007.49 1007.76 1008.27 1009.23 1010.21 1011.12 1012.17 1013.35 1014.23 1014.72 1015.30 1015.57 1016.02 1016.25 1015.98 1016.02 1016.10 1016.39 1016.56 1016.74 1016.85
1002.97 1003.89 1003.27 1002.57 1002.52 1002.71 1002.91 1003.12 1003.05 1002.96 1002.56 1001.59 1000.95 1001.49 1000.10 1001.02 1002.03 1002.57 1003.18 1003.99 1004.41 1004.99 1005.75 1006.52 1007.34 1008.02 1008.87 1009.90 1010.95 1011.79 1012.83 1013.87 1014.59 1015.02 1015.58 1015.76 1015.82 1016.04 1015.94 1016.16 1016.07 1016.05 1016.18 1016.55
1003.25 1003.43 1003.37 1003.39 1002.85 1003.13 1003.41 1002.69 1001.97 1001.77 1001.39 1000.71 1000.90 1001.17 999.63 1000.61 1001.48 1002.03 1002.14 1002.71 1003.63 1004.26 1004.95 1005.78 1006.52 1007.48 1008.48 1009.55 1010.63 1011.55 1012.42 1013.37 1014.08 1014.67 1015.03 1015.40 1015.79 1016.05 1016.15 1016.32 1016.02 1015.79 1015.74 1015.98
1001.93 1002.37 1002.71 1002.87 1002.35 1002.03 1002.37 1001.87 1000.83 1000.60 1000.16 1000.06 1001.15 1000.54 999.86 1000.83 1001.36 1001.74 1001.98 1001.95 1002.94 1003.55 1004.23 1005.10 1005.78 1006.72 1007.79 1008.89 1009.96 1010.98 1011.95 1012.93 1013.58 1013.99 1014.51 1015.01 1015.51 1015.70 1015.87 1015.93 1015.69 1015.60 1015.53 1015.55
1001.43 1001.25 1001.72 1002.21 1002.15 1002.02 1001.58 1001.46 1000.92 1000.40 1000.55 1000.38 999.75 1000.23 1000.07 1000.48 1000.96 1001.53 1001.72 1001.99 1002.57 1003.13 1003.63 1004.16 1004.90 1005.90 1007.04 1008.27 1009.47 1010.48 1011.44 1012.49 1013.34 1013.93 1014.61 1015.07 1015.47 1015.51 1015.14 1015.47 1015.76 1015.70 1015.84 1015.85
1001.45 1001.26 1001.54 1002.08 1002.58 1002.41 1001.63 1001.28 1001.19 1000.87 1000.17 1000.06 999.62 999.93 999.53 999.93 1000.13 1001.11 1001.66 1001.94 1002.31 1002.86 1003.46 1003.88 1004.66 1005.39 1006.33 1007.47 1008.71 1010.09 1011.23 1012.50 1013.16 1013.69 1014.34 1014.29 1014.52 1015.19 1015.29 1015.36 1015.57 1015.51 1015.51 1015.94
1001.70 1001.36 1001.34 1001.88 1001.49 1000.78 1001.57 1000.87 1000.72 999.89 999.90 999.56 999.27 999.01 999.07 999.51 1000.06 1000.81 1001.67 1002.41 1002.77 1002.79 1003.09 1003.57 1004.30 1005.57 1006.23 1007.21 1008.17 1009.77 1011.32 1012.37 1013.66 1013.92 1013.84 1013.76 1013.90 1014.10 1014.74 1014.88 1015.04 1015.31 1015.41 1015.63
1001.74 1000.76 1000.24 1000.65 1000.50 1000.85 1000.19 1000.06 999.89 999.77 999.76 1000.02 999.64 999.21 999.36 1000.06 1000.79 1001.41 1001.87 1002.47 1003.03 1003.27 1003.19 1003.63 1004.25 1005.58 1006.49 1007.39 1008.42 1009.93 1011.03 1011.88 1011.30 1010.90 1011.85 1012.86 1013.41 1013.79 1013.68 1014.12 1014.29 1014.57 1014.85 1015.15
1001.38 1001.15 1000.01 999.97 1000.86 1001.09 1000.39 999.97 999.37 999.18 999.03 998.97 999.19 998.85 999.67 1000.34 1001.00 1001.78 1002.15 1002.60 1003.27 1003.44 1003.61 1003.87 1004.71 1005.91 1006.79 1007.82 1008.81 1010.00 1010.65 1010.71 1010.81 1011.30 1011.95 1012.43 1013.12 1013.20 1013.39 1013.55 1013.76 1014.05 1014.27 1014.55
1000.97 1000.00 999.69 998.96 998.98 998.88 999.70 999.42 999.60 999.01 998.67 998.47 998.50 998.91 999.19 1000.00 1000.97 1001.91 1002.50 1002.82 1003.07 1003.37 1003.86 1004.51 1005.31 1006.12 1007.16 1008.09 1009.11 1009.85 1010.35 1010.57 1010.71 1011.18 1011.77 1012.25 1012.59 1012.81 1013.01 1013.20 1013.52 1013.81 1013.97 1014.12
1000.57 999.48 999.60 999.15 999.58 999.31 998.71 998.69 999.02 998.85 998.51 998.14 998.02 998.58 998.89 999.75 1000.81 1001.73 1002.53 1002.94 1003.28 1003.53 1003.97 1004.68 1005.23 1006.27 1007.24 1008.21 1009.08 1009.87 1010.27 1010.71 1010.96 1011.29 1011.80 1012.31 1012.80 1012.89 1012.98 1013.25 1013.40 1013.49 1013.58 1013.62
999.95 999.08 999.39 999.44 999.68 999.48 999.04 998.87 998.81 998.96 998.63 998.51 998.57 998.51 999.53 1000.74 1001.31 1002.25 1002.69 1002.94 1003.41 1003.68 1004.33 1005.10 1005.91 1006.79 1007.48 1008.20 1008.87 1009.65 1010.25 1010.68 1011.03 1011.35 1011.70 1012.04 1012.35 1012.50 1012.52 1012.76 1012.91 1013.05 1013.15 1013.15
999.55 998.87 999.26 998.84 999.42 999.37 998.88 998.45 998.71 998.69 998.83 998.80 998.58 999.22 1000.23 1001.25 1001.75 1002.07 1002.63 1003.00 1003.61 1004.13 1004.83 1005.65 1006.17 1006.78 1007.47 1008.18 1008.74 1009.30 1010.03 1010.53 1010.88 1011.11 1011.32 1011.48 1011.76 1012.00 1012.06 1012.08 1012.20 1012.27 1012.42 1012.38
999.46 998.96 998.74 998.25 999.39 998.97 998.18 999.11 999.16 999.08 998.91 999.16 999.40 1000.41 1000.89 1001.39 1001.78 1002.25 1002.56 1002.96 1003.77 1004.50 1005.18 1005.88 1006.20 1006.98 1007.70 1008.02 1008.64 1009.26 1009.87 1010.37 1010.67 1010.87 1011.17 1011.34 1011.56 1011.67 1011.74 1011.79 1011.85 1011.97 1012.12 1012.22
999.28 998.79 998.60 998.56 998.55 998.41 998.50 998.98 999.04 998.99 998.43 999.41 999.78 1000.50 1001.20 1001.85 1002.05 1002.55 1002.55 1003.22 1003.87 1004.75 1005.58 1006.05 1006.56 1007.10 1007.87 1008.48 1008.56 1009.07 1009.61 1010.05 1010.40 1010.66 1011.05 1011.31 1011.45 1011.54 1011.60 1011.63 1011.69 1011.72 1011.69 1011.75
999.15 998.74 998.40 998.41 997.94 997.99 997.95 998.85 999.37 999.41 998.70 999.69 999.93 1000.50 1001.30 1001.70 1001.25 1002.07 1002.84 1003.40 1004.12 1004.88 1005.53 1005.85 1006.48 1007.45 1008.15 1008.39 1008.53 1008.99 1009.53 1009.83 1010.03 1010.42 1010.85 1011.15 1011.45 1011.59 1011.63 1011.73 1011.75 1011.73 1011.59 1011.36
998.85 998.67 998.25 998.21 998.12 997.79 998.69 999.28 999.66 999.49 999.40 999.43 1000.16 1000.50 1001.30 1001.69 1001.29 1001.81 1003.14 1003.83 1004.35 1005.05 1005.72 1006.04 1006.66 1007.17 1008.06 1008.28 1008.42 1008.89 1009.24 1009.57 1009.72 1010.07 1010.59 1011.00 1011.32 1011.49 1011.54 1011.60 1011.55 1011.48 1011.36 1011.24
998.30 997.99 997.96 998.05 998.27 998.49 999.24 999.75 999.52 1000.08 1000.32 1000.57 1000.90 1001.19 1001.60 1002.16 1002.32 1002.76 1003.44 1004.01 1004.60 1005.23 1005.87 1006.37 1006.84 1007.37 1008.17 1008.74 1008.97 1009.10 1009.35 1009.55 1009.88 1010.25 1010.53 1010.86 1011.17 1011.19 1011.15 1011.35 1011.25 1011.12 1010.99 1010.81
998.89 997.76 997.72 998.38 998.54 999.77 999.51 999.79 1000.25 1000.21 1000.41 1001.02 1001.29 1001.55 1002.06 1002.37 1002.72 1003.17 1003.67 1004.22 1004.79 1005.49 1006.02 1006.55 1007.05 1007.61 1008.22 1008.91 1009.27 1009.41 1009.79 1010.10 1010.15 1010.49 1010.94 1011.17 1011.18 1011.21 1011.27 1011.19 1010.94 1010.64 1010.10 1009.90
999.51 999.61 998.38 999.20 999.71 999.79 1000.15 1000.58 1000.57 1000.61 1000.74 1001.05 1001.60 1002.00 1002.29 1002.66 1003.23 1003.55 1004.03 1004.59 1005.11 1005.68 1006.22 1006.79 1007.33 1007.77 1008.77 1009.39 1009.72 1009.87 1010.39 1010.65 1010.55 1010.61 1010.77 1010.90 1010.92 1010.85 1010.84 1010.47 1009.93 1009.69 1009.40 1009.25
999.37 999.75 999.05 999.53 1000.09 1000.50 1000.57 1000.54 1000.72 1000.99 1001.29 1001.62 1002.05 1002.44 1002.72 1002.99 1003.59 1004.10 1004.59 1005.09 1005.62 1006.32 1006.63 1007.22 1007.79 1008.39 1008.96 1009.56 1009.81 1010.22 1010.58 1010.60 1010.52 1010.67 1010.69 1010.69 1010.37 1010.33 1010.25 1009.89 1009.64 1009.62 1009.40 1009.50
999.53 998.51 998.32 997.67 999.07 999.01 1000.37 1000.92 1001.18 1001.40 1001.83 1002.27 1002.49 1002.90 1003.23 1003.63 1004.39 1005.12 1005.66 1006.20 1006.72 1007.40 1007.77 1008.15 1008.55 1008.93 1009.39 1009.90 1010.25 1010.47 1010.72 1010.80 1010.93 1010.79 1010.31 1010.32 1010.43 1010.00 1009.69 1009.44 1009.19 1009.07 1009.29 1009.45
Wind_Speed
13 12 15 16 11 4 1 2 2 6 4 5 4 5 13 16 16 16 17 17 19 18 17 17 15 15 13 13 13 14 13 11 8 8 7 6 6 4 3 2 2 4 5 5
9 17 16 15 12 9 8 6 3 6 3 5 2 7 10 18 19 18 17 18 18 18 18 17 16 15 16 15 14 14 14 13 11 8 6 5 4 3 3 1 3 4 5 4
17 12 15 9 11 14 13 11 2 6 3 6 8 8 8 15 15 17 17 17 17 18 19 19 18 17 16 16 17 16 16 14 13 11 7 5 4 3 5 4 5 5 6 5
12 5 9 18 19 16 17 3 4 3 7 4 3 1 10 11 15 17 18 19 18 18 18 18 20 19 17 17 15 15 15 15 13 13 9 9 6 6 5 5 3 3 5 6
11 10 14 19 19 15 15 0 3 3 11 7 10 8 11 9 11 15 19 20 20 21 20 19 18 18 17 15 14 14 14 14 13 13 11 9 9 6 5 5 3 5 4 5
9 1 12 15 14 7 8 8 10 9 10 11 6 8 10 10 6 5 10 20 22 21 21 20 17 15 14 12 12 12 13 13 13 13 14 12 10 8 5 6 6 6 5 6
15 10 6 7 11 10 12 15 12 12 12 10 6 7 10 6 5 1 3 16 20 20 19 18 18 16 15 14 13 12 13 14 14 14 14 13 12 10 9 8 8 7 5 5
13 16 14 13 16 13 17 18 11 10 11 8 6 8 3 3 3 3 3 12 19 20 18 19 20 18 17 16 16 15 14 14 15 15 14 12 12 9 9 9 8 7 6 4
12 14 9 7 12 12 15 16 16 18 3 9 4 5 10 3 3 2 6 8 16 18 19 20 19 18 17 16 16 16 15 13 11 11 9 10 10 12 10 10 8 8 7 5
4 11 8 12 7 7 11 16 11 10 12 10 9 6 9 7 6 5 8 8 12 14 16 15 15 16 15 16 15 14 13 11 10 7 7 11 13 13 12 10 11 10 8 7
10 10 10 8 14 15 10 10 12 10 7 9 9 6 7 5 4 5 7 5 4 8 12 14 14 12 13 13 15 14 13 14 10 8 10 12 12 13 12 12 11 11 10 9
18 8 11 16 10 8 15 19 16 11 13 10 11 10 5 3 5 6 6 6 4 3 7 11 13 12 11 12 13 14 16 18 17 16 12 10 13 12 12 12 12 12 12 11
15 11 9 12 11 8 14 14 13 15 14 11 8 9 7 6 6 7 7 6 7 6 8 11 14 11 12 12 13 14 17 18 18 11 8 10 13 12 12 13 11 12 12 12
13 16 14 11 13 13 20 14 15 16 12 12 10 13 11 7 8 10 8 6 9 10 11 14 14 14 12 12 12 13 14 15 14 9 7 6 6 9 10 10 10 11 11 12
16 16 14 3 4 5 8 14 14 16 15 12 6 12 15 4 7 10 9 8 11 14 15 14 15 13 13 12 11 11 10 10 10 9 7 5 5 4 5 8 11 10 10 11
17 9 11 11 6 8 8 7 10 16 16 9 14 11 9 5 11 10 10 11 11 14 13 15 14 14 13 13 13 11 10 9 7 7 7 7 8 8 9 10 10 9 11 12
15 9 9 12 9 6 10 12 11 11 11 14 14 4 6 10 13 12 13 13 14 15 16 16 16 15 14 14 13 13 11 9 7 5 4 3 4 6 6 6 7 9 10 11
12 16 9 4 8 11 4 3 4 10 8 11 10 2 2 10 11 11 13 15 16 17 17 15 16 16 15 16 15 14 13 11 9 7 5 4 2 0 2 4 5 6 6 8
16 12 6 6 10 2 7 7 6 6 9 10 11 6 9 12 12 10 13 15 16 16 15 14 14 15 14 15 15 14 13 12 10 8 6 4 2 2 2 3 4 5 6 7
12 14 9 7 7 8 5 8 3 3 7 10 9 9 11 16 13 12 14 16 16 16 15 14 16 16 14 14 15 14 12 11 10 8 7 5 3 2 3 4 5 4 6 7
11 11 13 10 9 5 7 9 6 8 7 10 6 7 12 14 7 16 16 15 15 15 15 14 14 13 12 12 12 12 12 10 10 10 8 5 2 1 2 3 5 5 7 7
10 9 7 8 10 9 10 8 6 6 6 5 4 9 14 7 9 14 15 14 14 16 16 15 12 11 10 8 7 8 8 9 8 7 6 4 2 2 2 4 5 6 7 8
6 3 5 8 8 5 10 5 4 4 7 6 8 13 14 11 8 8 12 13 13 13 13 13 12 11 9 8 6 7 5 5 6 4 3 3 2 3 4 5 7 8 8 8
3 4 5 7 5 8 10 4 3 5 9 8 11 14 14 9 8 9 10 11 10 10 11 11 11 11 8 7 8 5 4 3 4 3 3 3 5 3 6 7 8 8 9 9
2 9 8 5 6 8 6 7 11 12 12 13 13 13 8 9 10 9 8 8 8 6 6 7 8 7 6 5 5 5 5 3 2 2 4 5 7 6 7 8 8 9 9 7
8 9 9 9 14 2 14 12 12 13 14 12 14 14 12 12 11 11 10 8 6 7 5 5 5 6 6 6 6 5 4 2 3 5 5 6 7 8 8 9 9 7 12 11
Wind_Direction
198 212 219 217 227 22 301 318 22 86 36 264 243 247 169 182 197 190 188 190 195 200 195 192 196 195 196 194 190 195 198 190 194 201 206 208 220 203 223 231 189 219 199 197
179 223 219 233 228 228 237 266 115 128 71 266 212 261 186 181 197 199 196 191 198 197 195 194 192 197 201 200 202 202 204 195 200 204 213 236 227 216 287 223 197 233 195 190
226 214 226 233 213 234 238 257 54 349 334 241 290 227 179 188 198 201 205 203 198 198 197 191 195 200 198 202 203 205 205 197 202 215 202 204 236 236 228 210 220 206 212 210
241 157 233 225 231 225 248 115 188 244 277 328 322 307 175 167 202 205 207 201 204 202 202 202 197 199 202 205 203 207 203 202 199 197 204 214 231 235 228 240 235 249 221 218
197 209 220 227 226 225 256 232 217 239 264 261 190 261 106 158 193 206 209 209 209 194 204 205 206 198 203 201 201 202 204 203 203 195 213 202 225 223 233 238 265 254 188 224
256 263 239 236 235 228 246 232 218 240 269 266 212 257 167 151 90 156 193 202 206 204 201 201 204 202 204 201 202 200 196 201 201 196 202 206 214 234 243 230 247 242 208 193
204 196 189 238 215 215 209 226 232 224 225 245 107 235 271 54 49 145 225 188 198 201 200 203 203 196 198 199 199 199 193 193 195 198 198 201 209 215 229 241 233 263 234 222
203 203 198 188 223 208 217 229 231 216 242 240 139 237 210 71 352 350 208 177 188 194 196 199 203 201 196 195 193 193 190 194 193 194 203 200 204 216 224 225 257 237 246 241
210 229 173 198 208 235 189 229 248 273 224 284 244 190 271 153 119 87 137 154 181 191 195 194 196 200 192 191 193 192 187 190 194 197 203 214 217 228 219 236 225 231 243 258
194 236 183 175 197 215 263 212 207 233 258 241 241 230 280 199 293 145 153 179 169 190 196 196 193 196 189 187 186 183 178 169 171 188 211 211 209 222 230 227 230 242 242 231
234 246 153 168 207 192 193 208 236 284 241 279 257 244 264 286 312 184 144 179 179 204 189 195 184 184 181 181 174 165 153 143 128 162 242 209 223 209 218 227 228 234 232 230
217 234 187 206 194 269 234 217 217 225 216 240 288 295 16 111 148 161 131 132 126 187 180 182 166 158 160 170 157 151 152 165 193 207 173 193 206 227 213 222 224 228 231 227
194 231 215 173 180 189 231 231 258 245 248 271 260 273 134 143 160 143 141 120 137 134 140 163 134 148 146 157 151 164 169 187 200 193 167 213 211 212 226 233 227 235 229 229
189 224 235 210 215 202 206 215 227 248 236 243 232 266 168 167 167 157 141 136 121 121 134 133 141 143 146 150 160 172 184 198 215 217 191 173 214 220 223 233 241 240 238 234
224 232 221 234 321 268 229 200 211 229 238 259 278 230 241 65 174 160 139 133 129 133 131 137 135 135 142 148 153 167 178 203 230 251 231 216 215 230 241 253 256 251 246 243
216 220 193 233 227 243 226 225 222 222 249 259 269 275 82 105 143 153 150 138 139 129 129 121 131 141 143 146 146 151 164 182 199 231 260 254 248 255 249 247 250 252 249 248
219 208 200 216 195 214 229 210 215 225 230 235 237 340 134 160 171 160 153 146 134 124 121 123 129 131 131 130 135 136 143 148 160 175 205 223 238 247 248 252 255 256 254 255
221 225 211 182 177 224 80 86 256 257 244 237 248 132 214 159 166 153 160 142 136 130 123 125 126 124 135 135 127 129 133 135 134 132 134 131 148 168 313 300 289 284 272 258
231 222 194 201 221 228 218 195 224 236 275 206 230 183 179 159 143 148 148 142 139 134 133 136 135 134 132 138 134 131 132 133 134 129 128 123 91 20 350 312 304 296 290 282
213 215 226 205 252 235 298 124 146 189 200 176 178 165 176 171 180 153 160 144 140 142 142 146 142 146 143 142 137 133 138 143 134 129 121 117 96 23 352 338 313 301 278 256
175 203 216 197 236 209 112 145 141 243 78 136 173 140 169 195 344 135 156 154 150 144 151 151 153 152 160 148 147 159 156 162 150 142 143 137 112 14 339 318 310 302 290 297
184 191 205 233 225 233 159 157 246 60 102 133 183 167 177 125 130 148 160 156 151 155 158 167 169 167 168 169 178 178 182 162 155 153 148 138 134 298 330 300 295 292 285 275
229 268 187 243 202 134 174 31 81 66 113 132 156 159 145 138 123 154 170 163 161 168 171 179 173 175 183 182 206 208 194 188 165 157 172 218 228 263 273 285 291 286 266 260
202 248 202 187 141 157 159 156 123 122 102 112 144 157 152 129 136 128 152 165 168 175 182 188 185 179 169 185 187 200 163 194 164 184 241 274 275 286 281 294 292 294 292 288
29 174 169 106 132 147 149 132 127 116 108 107 123 144 157 136 131 122 129 150 158 155 144 161 178 169 165 167 142 140 149 167 207 259 287 283 278 295 298 274 303 304 299 324
188 181 198 199 166 230 139 142 133 122 115 116 112 105 92 100 105 100 91 93 115 126 114 115 123 130 122 125 126 109 91 56 327 290 284 325 308 310 306 307 304 240 233 256